Location: Asbacherhof
(48.8543°N, 10.7903°E)
Time: 23:48:01
(UTC+00:00)

Meteor 2-5 Rocket - Pass Details

Date: 26 May 2022
Orbit: 832 x 912 km, 81.2° (Epoch: 26 June)

Event Time Altitude Azimuth Distance (km) Brightness Sun altitude
Exits shadow 00:55:42 24° 185° (S) 1,736 4.8 -16.5°
Maximum altitude 00:59:19 83° 99° (E) 883 3.8 -16.2°
Drops below altitude 10° 01:05:00 10° 13° (NNE) 2,502 7.4 -15.8°
Sets 01:07:25 0° 13° (NNE) 3,431 8.5 -15.6°
